Dewpoint
-21 -22 -6 -6 -8 -6 -4 -5 -7 4 9 7 7 8 10 11 13 14 14 13 13 13 8 7 8 9 10 10 10 10 10 9 9 5 0 -3 -7 -5 -12 -14 -14 -14 -13 -9 -7 -8 -8 -8 -8
-14 -2 -3 -10 -7 -4 -4 -7 9 8 8 7 6 7 7 12 13 14 15 15 14 12 8 8 9 10 11 11 11 11 10 10 5 0 -3 -7 -5 -9 -13 -14 -13 -10 -8 -8 -8 -6 -4 -4 -4
-1 -3 -14 -12 -7 -3 -5 -1 5 8 8 7 6 6 6 10 13 14 14 15 15 13 11 8 10 11 12 12 12 11 10 7 1 -3 -7 -6 -6 -12 -12 -12 -8 -8 -8 -8 -5 -3 -3 -4 -4
-5 -11 -14 -8 -8 -8 -8 1 6 6 6 6 6 6 5 7 12 13 14 14 14 14 12 9 10 12 12 12 12 11 9 4 -2 -4 -9 -5 -9 -12 -11 -7 -9 -8 -7 -5 -4 -3 -3 -4 -4
-6 -13 -14 -11 -7 -8 -7 5 8 11 9 8 7 4 4 10 11 14 14 14 14 13 13 11 12 12 13 12 11 10 7 2 -5 -5 -10 -6 -11 -11 -6 -8 -6 -6 -5 -4 -3 -2 -3 -3 -3
-11 -13 -11 -10 -11 -11 -10 6 8 9 10 7 9 4 6 10 12 13 13 12 13 13 11 9 12 13 13 12 10 9 7 -0 -6 -5 -12 -8 -9 -4 -6 -6 -5 -4 -4 -3 -2 -1 -2 -3 3
-8 -12 -12 -10 -10 -5 -8 6 6 7 7 5 7 10 11 9 11 11 10 11 13 11 9 9 9 10 12 11 10 8 5 -6 -5 -8 -10 -6 -3 -3 -5 -5 -4 -3 -2 -1 -1 -1 -2 -1 5
-11 -11 -10 -10 -8 -5 4 6 5 4 4 5 6 6 9 11 13 11 10 8 10 10 12 12 10 12 11 9 8 6 1 -8 -4 -5 -3 -1 -1 -3 -2 -3 -5 -3 -1 -1 -1 -2 -2 4 6
-13 -11 -9 -8 -7 6 7 7 6 4 1 5 5 3 9 13 12 12 13 12 9 9 9 12 10 10 10 7 5 2 -2 -5 -4 -2 7 9 9 9 9 8 -3 -3 -2 -2 1 3 4 5 5
-12 -9 -7 3 5 6 7 8 5 1 4 7 9 7 12 13 12 13 13 12 9 11 12 11 10 10 9 6 6 -2 5 6 9 4 9 10 9 8 7 8 3 7 6 6 7 5 6 6 5
-11 -9 -9 5 5 3 4 6 2 3 6 8 10 11 12 12 12 12 13 12 11 11 10 9 8 10 11 8 7 7 8 7 8 5 10 10 9 10 9 8 8 8 7 7 6 6 5 4 3
-10 -12 -9 2 1 3 1 2 2 3 6 4 8 10 12 12 12 12 11 11 12 12 12 10 11 11 9 7 6 8 9 9 10 8 8 9 10 8 6 7 8 7 6 6 6 5 4 2 -0
-10 -9 -10 -8 -6 -4 -1 -0 2 2 2 5 7 7 10 11 11 9 8 10 11 11 10 10 10 8 7 6 8 9 9 9 10 10 11 10 8 5 5 5 5 5 6 6 5 4 3 2 -1
-10 -9 -12 -10 -8 -0 -0 0 0 3 5 7 6 6 8 8 7 6 7 7 9 9 9 10 8 8 9 10 9 9 7 6 7 3 4 6 9 8 7 5 5 3 0 3 4 3 -1 -1 -1
-8 -8 -11 -7 -7 -3 1 -1 -1 3 5 5 4 4 5 5 5 5 6 6 8 9 10 7 8 11 10 9 7 4 2 4 6 4 4 5 7 7 7 6 4 2 0 4 -2 -3 -2 0 -0
-9 -10 -8 -4 -5 -7 -9 -3 -2 3 3 3 3 3 3 3 4 5 5 6 8 9 9 10 10 10 9 6 4 3 5 2 4 4 3 3 4 3 3 0 -2 -2 -1 -0 1 1 0 0 1
-7 -6 -1 -3 -5 -11 -15 -5 -4 1 2 2 3 3 4 3 3 3 4 6 8 8 9 10 11 9 7 4 5 5 4 5 4 3 1 -2 -3 -3 -2 2 1 -0 -0 1 1 2 1 1 1
-5 -6 -4 -5 -8 -16 -14 -6 -5 -2 4 8 3 3 4 4 3 3 3 6 9 9 9 10 10 7 6 8 7 6 5 4 3 3 1 2 0 -1 -1 2 2 2 2 2 2 1 1 1 1
-6 -7 -8 -9 -14 -14 -7 -6 -5 -4 2 3 3 4 4 5 5 5 4 5 9 10 9 10 10 7 7 9 6 5 4 4 3 1 -2 -1 -0 1 1 1 1 1 1 1 0 -1 -0 0 -0
-7 -7 -10 -11 -12 -11 -10 -7 -6 -5 -4 -1 1 3 4 5 5 6 5 5 7 10 10 10 10 9 9 6 5 5 4 3 2 1 1 0 0 -1 0 -0 -0 0 0 -1 -1 -2 -3 -2 -1
-8 -7 -5 -7 -11 -11 -0 -3 -5 -5 -4 -3 -2 -0 2 4 6 7 6 7 8 10 10 10 10 9 6 5 4 4 3 0 2 1 2 2 2 1 -0 -2 -3 -3 -5 -2 -2 -3 -3 -1 -1
-1 -2 -6 -3 1 -4 -1 3 6 3 -3 -1 -1 0 1 3 6 7 9 9 9 10 10 9 9 6 5 3 2 2 2 2 2 1 1 -1 -3 -5 -8 -12 -12 -11 -10 -6 -3 -2 -2 -2 -2
-1 -2 -3 -6 -4 -1 2 2 5 3 2 0 1 1 2 4 6 8 9 9 9 9 9 8 7 6 4 2 2 2 2 1 1 -1 -5 -9 -12 -13 -12 -12 -14 -20 -17 -13 -5 -2 -1 -1 -2
-3 -3 -2 -7 -4 7 2 4 5 5 2 3 -0 2 3 4 7 8 9 9 9 10 8 7 5 3 3 3 2 2 1 -1 -5 -6 -9 -12 -13 -12 -11 -12 -17 -12 -7 -4 -3 -1 -1 -1 -3
-5 -3 -0 4 6 5 -5 1 4 3 3 7 8 2 4 6 7 8 9 9 9 8 7 5 3 3 3 2 1 1 -2 -2 -1 -4 -12 -20 -12 -11 -10 -15 -13 -13 -3 -2 -2 -1 -3 -6 -5
-3 -7 3 9 9 5 -1 0 -4 -1 2 6 5 4 6 7 7 8 7 8 8 7 6 3 2 3 3 1 -0 -3 -0 1 -4 -9 -14 -21 -16 -14 -12 -11 -14 -4 -2 -2 -4 -4 -4 -4 -3
-8 -3 -5 -1 6 5 -2 -8 -12 -4 -5 -4 3 4 6 6 6 5 6 4 4 4 4 2 2 3 2 -1 -3 -2 0 -3 -9 -13 -16 -17 -18 -13 -11 -15 -10 -4 -3 -5 -4 -6 -4 -4 -5
-3 -6 0 0 3 3 -4 -3 -1 -1 -2 -3 2 3 4 5 4 3 3 1 2 3 4 2 2 2 -1 -3 -1 -0 -2 -5 -9 -12 -12 -17 -13 -15 -12 -9 -7 -6 -5 -3 -4 -4 -4 -4 -5
-3 -3 -4 -4 3 9 7 -1 -6 -5 -4 -2 -1 3 3 4 3 1 0 1 2 3 3 3 2 1 -3 -2 -1 -3 -3 -7 -9 -8 -9 -10 -9 -11 -8 -7 -6 -6 -6 -6 -6 -5 -7 -6 -6
-4 -1 -4 8 3 7 9 2 -6 -5 -6 -5 -3 0 2 3 2 1 0 1 2 3 3 3 2 -2 -3 -2 -3 -4 -5 -5 -5 -6 -6 -6 -8 -7 -7 -6 -5 -6 -6 -6 -6 -6 -7 -7 -7
Wind_Speed
8 7 4 10 7 7 14 19 22 6 6 7 7 14 14 14 6 3 11 13 18 21 28 27 24 23 22 20 17 15 14 11 10 8 7 7 8 10 11 12 11 11 13 16 18 20 22 23 24
4 4 10 11 8 12 14 20 18 13 17 16 18 13 14 13 12 16 18 21 23 25 29 28 25 23 21 19 16 14 12 11 9 7 7 8 9 10 11 10 10 12 15 17 19 21 23 24 24
9 8 11 6 12 15 17 11 8 15 11 15 9 11 6 9 13 11 18 24 26 23 25 27 24 22 20 19 15 14 11 10 8 7 8 8 9 10 10 9 11 13 16 18 19 21 23 24 26
5 8 11 8 18 20 21 7 16 12 13 14 15 6 7 6 8 12 15 20 24 24 22 24 22 20 18 17 15 13 11 10 8 7 7 8 9 9 10 10 13 14 16 16 17 18 18 20 23
9 11 10 13 17 22 6 20 16 16 13 21 25 7 8 7 14 18 20 16 20 24 26 25 22 19 19 15 14 12 11 9 8 7 7 9 9 9 11 12 13 14 14 14 13 13 15 18 22
11 12 12 14 20 21 8 29 30 18 11 11 3 11 8 11 17 16 15 14 13 20 22 20 14 12 17 16 15 12 10 8 7 7 8 8 8 9 10 11 12 12 11 10 10 10 12 15 19
16 11 15 19 20 6 5 34 26 25 18 16 9 5 1 12 19 12 12 13 12 23 26 25 19 16 12 12 14 11 9 7 7 7 9 9 9 9 8 8 8 8 7 6 6 8 10 14 16
19 12 20 18 17 10 20 20 19 12 13 18 16 9 6 13 14 8 14 15 22 26 19 21 17 10 12 13 11 9 8 7 8 9 11 12 12 8 6 5 3 3 4 6 7 9 11 13 16
18 11 14 20 20 8 16 13 7 21 6 8 9 13 9 20 15 21 20 22 29 20 16 16 18 15 12 11 11 9 9 9 10 12 14 13 11 7 5 8 3 3 5 7 9 12 12 11 14
15 11 18 17 14 10 20 19 35 6 16 7 7 28 18 21 20 20 22 27 30 27 19 19 18 16 12 14 13 13 14 12 11 11 13 7 8 5 1 4 6 7 10 11 9 12 11 8 14
17 16 9 15 19 19 25 31 13 5 7 12 21 27 23 18 18 22 21 25 23 22 20 18 17 16 15 13 16 13 10 10 11 12 7 6 6 4 4 2 4 6 9 6 10 10 11 17 13
14 19 16 10 10 17 6 22 13 18 8 27 17 18 23 17 17 21 24 25 20 16 17 18 19 18 16 18 14 13 12 6 7 5 6 2 3 4 2 3 5 2 3 6 9 12 10 6 11
13 17 2 5 14 8 25 9 17 16 14 23 12 23 23 18 18 18 20 16 18 17 19 15 16 19 18 18 16 17 14 11 7 5 6 5 6 4 4 9 12 10 6 7 10 11 14 18 20
9 14 6 6 8 20 12 5 14 18 14 19 20 21 22 19 20 18 22 19 20 19 20 18 16 24 18 19 16 14 12 9 5 8 7 6 5 9 8 9 7 7 15 14 14 17 20 17 13
3 9 2 2 4 5 17 11 11 19 18 20 20 17 16 17 20 19 18 18 20 19 18 18 22 20 19 16 14 10 4 4 5 8 4 7 8 8 8 3 7 14 12 15 20 21 20 17 17
10 10 7 6 10 5 8 13 12 24 18 19 21 18 16 16 16 15 16 17 16 18 18 20 21 18 19 18 12 3 11 12 5 2 6 4 2 1 1 7 10 10 11 14 15 15 12 15 17
10 8 6 7 19 6 9 16 16 20 22 21 22 21 21 19 18 18 17 19 19 19 20 22 20 20 20 17 7 6 5 3 6 4 5 5 3 3 4 8 11 13 9 9 13 14 17 21 20
7 6 15 14 13 9 14 16 13 16 36 34 23 23 21 19 21 19 19 19 19 20 19 20 20 17 16 4 4 8 9 10 9 7 5 9 5 6 5 4 11 13 11 12 14 20 18 20 20
8 16 16 14 10 10 13 14 16 18 26 23 19 22 20 18 16 18 19 20 21 20 20 17 17 15 12 8 9 11 11 8 5 3 3 2 4 7 11 5 9 10 12 15 19 19 18 18 22
14 13 9 10 7 10 10 13 16 14 15 16 20 25 24 22 22 19 19 22 22 22 20 18 16 10 10 12 15 14 12 12 4 6 7 7 9 8 6 12 14 14 17 17 16 19 22 20 16
14 3 7 7 8 7 8 1 13 15 14 16 19 19 22 25 23 19 20 20 21 24 23 18 17 13 15 17 15 15 9 3 9 8 2 3 9 9 8 10 13 16 17 17 19 20 18 16 14
7 13 6 8 6 10 13 6 10 16 14 13 19 21 21 24 22 21 20 21 23 22 20 19 18 21 19 12 14 13 12 16 11 6 6 7 7 11 13 14 16 18 18 19 17 15 19 20 14
7 15 9 12 11 2 13 6 6 14 13 15 14 18 20 21 22 24 23 24 24 22 22 21 23 18 16 17 17 16 11 9 6 7 7 7 11 11 12 13 17 18 17 15 16 15 17 17 16
8 8 15 10 9 2 8 10 7 12 23 4 16 14 15 20 22 22 25 22 24 24 23 25 21 17 17 20 20 19 16 12 8 6 7 11 9 12 12 16 17 16 13 12 13 17 16 16 19
8 9 7 3 5 7 13 9 8 20 14 15 24 24 20 19 22 25 27 28 29 27 27 25 20 20 19 20 19 17 11 4 5 6 10 11 10 11 13 17 15 14 9 14 16 18 20 22 20
14 10 4 6 4 10 5 4 4 16 33 44 39 24 22 22 21 22 25 25 24 25 24 22 23 20 19 19 17 11 6 6 8 10 11 9 10 11 14 14 13 10 13 15 18 15 14 14 15
5 9 8 4 16 6 4 14 15 8 10 7 23 23 22 20 21 24 26 25 26 24 24 25 24 22 21 19 16 10 6 7 9 8 8 8 11 11 11 14 10 9 16 16 17 17 15 19 17
6 9 3 3 3 5 8 9 3 4 5 2 13 19 21 21 22 23 25 25 25 24 24 25 24 25 22 21 15 11 8 7 7 7 8 10 11 12 11 12 12 12 11 13 15 17 17 18 18
7 8 8 7 4 1 4 2 7 7 5 5 7 20 21 23 23 25 26 26 24 25 25 27 26 26 25 24 15 11 8 10 8 7 9 10 12 11 12 12 13 13 12 14 17 18 19 18 17
9 9 12 3 5 2 0 6 4 4 3 2 6 14 24 26 26 27 27 26 27 25 26 26 27 26 26 20 16 14 14 10 9 8 9 11 13 11 13 14 13 12 14 16 17 15 15 16 15
Wind_Direction
241 207 208 257 241 232 258 254 247 56 69 92 76 57 91 37 5 110 144 147 163 162 153 151 153 145 143 139 129 125 121 117 112 103 96 89 86 89 90 88 82 72 67 67 67 66 62 59 53
193 207 238 268 239 252 250 252 64 69 101 89 79 93 66 66 81 125 129 147 155 163 156 156 153 149 145 134 125 124 124 124 118 112 108 97 98 100 97 90 80 74 75 77 75 70 64 57 52
184 213 237 228 234 247 263 66 107 118 119 104 81 87 79 110 114 140 153 146 147 152 155 157 151 149 143 126 131 129 130 129 126 123 117 107 111 107 100 86 83 85 86 85 79 72 62 55 48
209 213 251 260 250 239 250 188 121 130 126 103 121 108 114 86 119 133 151 158 148 142 160 151 150 149 140 132 136 130 138 138 130 125 111 111 116 109 95 90 93 92 90 86 82 72 56 47 43
240 259 241 237 247 265 262 88 102 87 9 33 340 131 113 99 119 129 144 143 157 159 155 151 152 147 147 147 129 132 143 133 126 127 114 119 119 106 99 101 101 96 91 87 80 65 49 41 35
223 229 252 240 244 240 219 111 102 108 167 127 359 130 112 127 126 150 146 154 158 147 147 152 138 135 135 151 131 141 138 126 130 123 116 123 113 102 106 106 101 97 93 86 75 56 36 31 26
249 245 244 256 263 330 258 130 121 139 168 186 159 73 48 143 148 155 165 144 152 142 155 151 141 166 156 134 136 137 130 121 128 120 116 105 100 98 97 103 99 92 84 69 49 32 19 21 22
240 258 270 270 267 225 16 71 113 108 174 148 142 160 167 138 139 146 131 114 149 143 156 155 128 132 146 135 126 125 130 132 121 104 101 94 75 76 57 80 101 81 45 25 17 13 17 25 5
237 260 264 262 273 70 41 29 298 200 159 89 113 105 114 134 122 114 116 128 133 119 126 140 130 149 131 125 129 141 131 111 102 106 96 89 73 51 32 4 19 8 6 1 7 4 10 17 10
240 235 255 36 34 92 117 183 238 92 22 96 111 131 147 125 134 134 124 134 128 135 143 139 136 129 117 113 113 116 103 97 90 107 90 109 144 172 237 14 33 15 9 359 0 355 358 355 331
226 252 273 48 54 345 285 180 185 128 95 43 327 142 135 139 148 135 135 132 133 131 138 137 133 113 123 102 97 104 117 140 148 135 116 204 157 176 150 75 355 15 11 359 343 349 327 333 340
241 241 259 140 157 223 207 102 94 98 136 113 192 157 130 140 139 138 127 120 124 127 127 127 129 138 134 121 119 107 107 109 76 108 144 249 200 221 211 194 220 230 1 344 343 334 319 316 343
234 261 246 224 215 191 67 84 133 142 118 172 200 149 132 147 135 131 128 121 130 134 131 138 146 140 117 132 133 145 133 141 165 190 183 237 277 279 302 309 304 309 311 315 300 293 297 298 312
221 262 29 241 208 105 85 212 142 158 147 127 139 138 137 149 135 147 140 134 141 137 144 144 146 131 130 141 152 136 142 179 131 1 358 278 267 272 280 311 356 346 327 294 290 297 306 312 314
255 270 101 87 153 154 197 171 98 113 128 143 136 139 143 143 143 148 142 141 145 147 148 150 123 139 160 150 138 134 95 311 322 330 319 265 271 287 281 251 291 304 309 300 305 310 315 334 328
246 220 170 286 272 166 194 119 143 131 149 150 142 140 149 152 152 154 153 153 152 151 151 135 151 164 149 142 132 224 286 266 306 145 111 91 128 168 328 308 312 308 300 328 331 336 303 304 316
226 169 157 183 248 172 235 135 153 159 159 152 147 159 157 163 163 160 164 163 164 157 155 158 159 165 155 160 252 242 241 160 133 137 86 68 66 17 12 334 320 328 337 314 315 296 301 316 312
96 277 175 209 210 195 216 141 167 183 117 257 153 159 153 166 166 165 169 167 168 163 163 171 169 179 172 193 200 126 112 94 104 128 98 123 356 353 41 17 338 352 337 305 295 308 316 315 305
239 226 214 194 171 229 138 151 175 197 168 169 168 152 154 169 162 167 175 171 169 171 170 174 184 176 161 177 139 141 129 141 162 130 70 356 48 3 2 320 300 297 289 292 301 310 305 296 305
259 259 187 131 170 223 200 175 179 197 197 176 177 171 169 180 177 178 182 179 181 177 178 175 186 174 161 161 159 149 152 155 179 20 18 338 330 320 308 309 312 302 297 302 308 299 302 305 293
257 247 216 158 196 218 352 265 178 186 204 203 197 192 181 181 169 182 186 185 185 178 180 177 181 168 176 181 188 181 179 123 107 91 124 335 329 330 326 310 305 301 314 302 298 305 310 293 284
358 344 199 170 314 211 179 185 47 308 211 200 201 202 194 181 172 183 190 189 190 183 184 184 174 181 182 154 165 153 143 161 180 170 241 284 276 283 289 294 290 289 289 291 300 297 293 296 300
169 273 263 251 228 272 326 325 203 239 259 213 223 209 191 175 180 182 188 194 192 187 180 178 175 184 172 179 185 178 176 138 188 234 283 295 300 306 306 299 301 310 309 307 302 302 280 276 276
175 238 259 275 266 182 216 201 241 211 241 293 195 209 207 184 177 183 187 193 186 176 175 178 173 167 168 176 180 190 191 191 215 284 309 306 314 306 304 303 315 318 321 315 291 273 273 277 290
210 227 243 325 306 280 256 169 223 209 208 141 215 195 194 183 179 181 177 174 169 170 178 179 169 170 183 194 196 199 199 223 276 303 305 317 299 302 296 309 317 321 319 281 273 276 289 293 296
258 254 244 164 293 297 11 227 333 150 196 178 202 176 177 180 177 176 173 172 173 180 185 175 180 177 182 194 193 185 214 271 274 291 293 299 296 293 300 306 313 321 280 283 289 286 307 308 304
293 247 285 332 196 252 288 287 286 85 103 137 158 170 174 183 184 185 181 182 183 187 186 183 183 183 190 196 192 210 237 271 258 264 291 300 295 290 291 302 308 297 286 298 289 304 304 300 299
268 332 281 282 315 285 291 300 303 135 123 216 164 169 179 186 190 192 187 188 190 194 196 192 190 194 192 200 205 227 249 256 242 277 293 300 290 300 306 305 298 282 289 299 302 299 295 294 295
185 238 245 288 260 296 313 309 35 34 34 152 225 175 183 188 198 197 198 197 198 199 201 198 196 200 195 205 210 213 252 226 242 270 282 293 292 309 300 294 290 295 294 291 293 295 303 299 298
314 288 209 172 269 161 98 278 35 80 52 37 228 205 187 192 199 202 205 207 198 204 203 205 202 204 207 210 212 217 211 216 229 236 267 270 298 299 297 296 297 301 299 291 286 291 293 292 286
Height
1509 1510 1512 1514 1516 1500 1491 1478 1460 1465 1477 1482 1483 1483 1497 1502 1502 1512 1508 1504 1509 1519 1523 1528 1534 1537 1541 1544 1546 1549 1551 1555 1557 1557 1559 1561 1561 1563 1563 1563 1564 1565 1565 1565 1567 1568 1567 1566 1566
1508 1510 1513 1510 1509 1500 1482 1460 1480 1474 1483 1484 1483 1489 1496 1507 1508 1511 1514 1514 1517 1520 1525 1529 1534 1538 1541 1543 1546 1551 1552 1554 1558 1559 1561 1561 1564 1565 1565 1566 1566 1567 1567 1567 1569 1569 1569 1568 1567
1508 1510 1511 1503 1498 1495 1477 1468 1476 1485 1488 1489 1490 1495 1500 1509 1512 1513 1514 1517 1520 1525 1527 1530 1535 1540 1543 1541 1548 1550 1555 1555 1559 1560 1561 1563 1565 1567 1567 1569 1568 1568 1569 1569 1570 1571 1571 1570 1570
1509 1511 1509 1500 1493 1475 1467 1474 1476 1482 1487 1490 1497 1505 1507 1510 1511 1513 1515 1517 1520 1525 1528 1533 1539 1542 1543 1544 1547 1550 1554 1557 1559 1562 1564 1565 1567 1569 1568 1570 1570 1570 1570 1571 1571 1571 1573 1573 1571
1509 1505 1500 1492 1486 1470 1463 1470 1482 1492 1497 1496 1506 1506 1509 1511 1510 1515 1515 1520 1519 1523 1527 1534 1539 1541 1545 1548 1545 1550 1556 1558 1560 1563 1565 1566 1568 1570 1569 1571 1571 1572 1573 1573 1575 1573 1574 1574 1573
1506 1503 1500 1494 1478 1464 1460 1470 1481 1494 1511 1505 1515 1505 1509 1512 1511 1514 1517 1520 1522 1525 1527 1533 1538 1542 1540 1547 1546 1553 1557 1559 1563 1564 1566 1567 1570 1571 1572 1572 1573 1573 1574 1576 1575 1575 1577 1575 1575
1503 1496 1492 1479 1471 1467 1463 1472 1486 1498 1504 1499 1500 1509 1514 1513 1508 1514 1520 1524 1525 1528 1534 1537 1541 1546 1547 1546 1548 1555 1559 1561 1564 1566 1567 1570 1571 1573 1575 1575 1575 1575 1575 1577 1577 1577 1578 1576 1575
1501 1494 1488 1476 1470 1467 1474 1480 1488 1491 1493 1494 1500 1511 1512 1512 1510 1516 1519 1524 1528 1532 1531 1534 1543 1533 1549 1551 1553 1557 1560 1562 1564 1566 1570 1571 1572 1575 1576 1575 1575 1575 1576 1577 1578 1578 1578 1577 1576
1497 1496 1490 1475 1467 1481 1483 1496 1491 1494 1493 1495 1501 1506 1509 1507 1512 1520 1522 1526 1533 1535 1537 1539 1546 1551 1552 1553 1553 1557 1561 1563 1566 1569 1571 1571 1574 1575 1575 1576 1576 1576 1575 1577 1578 1578 1578 1577 1576
1493 1492 1482 1482 1482 1484 1488 1503 1494 1491 1498 1502 1503 1506 1510 1509 1515 1522 1525 1529 1528 1535 1541 1543 1550 1552 1552 1554 1555 1559 1562 1564 1567 1570 1572 1572 1576 1577 1576 1577 1576 1577 1576 1578 1578 1578 1576 1575 1575
1490 1491 1479 1493 1492 1486 1491 1500 1493 1493 1503 1509 1507 1507 1513 1518 1518 1521 1525 1529 1535 1537 1540 1544 1547 1550 1555 1557 1557 1560 1563 1566 1567 1570 1572 1575 1573 1574 1575 1576 1577 1576 1576 1577 1577 1577 1576 1575 1574
1489 1485 1482 1490 1490 1487 1479 1487 1500 1497 1501 1501 1508 1511 1516 1524 1522 1523 1528 1532 1536 1541 1543 1546 1551 1552 1555 1559 1561 1562 1565 1568 1567 1570 1573 1573 1573 1573 1574 1575 1574 1577 1576 1574 1576 1576 1573 1573 1573
1486 1482 1479 1485 1483 1483 1483 1488 1492 1496 1495 1502 1507 1511 1517 1521 1522 1526 1530 1533 1537 1542 1545 1547 1549 1553 1556 1560 1562 1564 1567 1569 1569 1570 1573 1572 1572 1573 1572 1573 1575 1574 1574 1573 1572 1572 1570 1571 1570
1483 1482 1482 1482 1481 1484 1489 1489 1489 1495 1498 1504 1510 1512 1517 1520 1522 1528 1531 1535 1539 1544 1547 1549 1551 1555 1557 1560 1562 1565 1566 1567 1568 1568 1570 1571 1570 1569 1570 1571 1572 1572 1571 1570 1569 1569 1568 1567 1567
1482 1484 1485 1482 1483 1482 1496 1494 1492 1496 1501 1505 1508 1512 1517 1520 1524 1529 1531 1536 1538 1543 1546 1548 1551 1555 1557 1560 1563 1563 1563 1565 1567 1567 1567 1568 1569 1569 1569 1569 1569 1568 1568 1568 1568 1567 1567 1565 1564
1483 1481 1495 1486 1482 1481 1484 1496 1494 1496 1502 1504 1507 1512 1516 1522 1526 1530 1533 1537 1539 1542 1545 1548 1551 1554 1557 1559 1563 1565 1564 1564 1566 1566 1566 1566 1567 1568 1568 1568 1567 1568 1568 1567 1566 1566 1564 1562 1561
1481 1491 1498 1494 1483 1480 1483 1491 1492 1495 1499 1506 1509 1513 1517 1522 1526 1530 1534 1537 1539 1542 1546 1550 1551 1553 1557 1558 1558 1563 1563 1563 1565 1565 1565 1566 1565 1566 1567 1566 1565 1566 1566 1566 1565 1562 1561 1558 1557
1493 1493 1489 1488 1479 1478 1480 1487 1491 1494 1500 1507 1505 1511 1516 1521 1525 1529 1534 1537 1538 1541 1546 1549 1551 1553 1556 1559 1558 1560 1562 1562 1564 1565 1565 1565 1563 1564 1565 1565 1564 1564 1564 1563 1561 1559 1558 1556 1553
1482 1483 1483 1476 1475 1480 1481 1488 1489 1492 1495 1498 1504 1505 1513 1520 1524 1529 1532 1535 1537 1540 1545 1548 1551 1553 1555 1556 1557 1560 1561 1562 1562 1563 1563 1563 1563 1562 1563 1563 1562 1562 1560 1559 1558 1556 1554 1552 1550
1480 1479 1477 1475 1477 1480 1479 1484 1485 1488 1490 1493 1497 1503 1509 1516 1522 1527 1531 1533 1536 1539 1543 1547 1549 1551 1553 1556 1557 1559 1559 1560 1561 1561 1561 1560 1561 1561 1561 1560 1559 1558 1556 1555 1554 1552 1550 1548 1547
1476 1478 1483 1482 1481 1480 1488 1488 1485 1486 1489 1491 1495 1499 1504 1510 1517 1524 1528 1531 1534 1536 1540 1544 1548 1550 1552 1552 1555 1556 1558 1560 1560 1561 1561 1560 1559 1559 1559 1558 1556 1555 1553 1551 1550 1548 1547 1544 1543
1491 1484 1479 1487 1494 1496 1487 1512 1514 1498 1487 1487 1491 1495 1500 1505 1512 1520 1525 1529 1531 1534 1538 1542 1545 1546 1548 1552 1553 1555 1555 1556 1557 1558 1558 1559 1557 1557 1556 1554 1551 1550 1549 1547 1546 1545 1544 1541 1540
1490 1480 1482 1477 1483 1485 1494 1501 1504 1499 1495 1491 1494 1496 1497 1501 1508 1515 1521 1525 1529 1532 1537 1540 1541 1543 1546 1547 1549 1550 1552 1554 1554 1554 1556 1555 1554 1553 1552 1549 1547 1545 1544 1542 1542 1541 1539 1537 1536
1479 1483 1480 1475 1479 1506 1497 1507 1511 1504 1496 1492 1493 1500 1503 1501 1505 1512 1516 1523 1527 1532 1534 1535 1537 1541 1543 1543 1544 1545 1548 1549 1551 1553 1553 1551 1552 1550 1548 1545 1543 1541 1540 1539 1538 1535 1534 1533 1532
1477 1481 1497 1511 1511 1503 1468 1492 1483 1477 1483 1495 1497 1494 1500 1503 1504 1509 1513 1519 1524 1526 1529 1532 1536 1538 1539 1539 1541 1543 1546 1547 1548 1548 1548 1547 1548 1547 1544 1541 1539 1537 1537 1535 1533 1532 1531 1530 1529
1481 1479 1498 1540 1546 1510 1477 1490 1468 1461 1472 1481 1486 1490 1497 1500 1504 1509 1513 1517 1521 1524 1527 1531 1534 1535 1536 1537 1538 1540 1542 1544 1544 1544 1543 1542 1542 1542 1540 1537 1535 1534 1533 1531 1529 1528 1528 1527 1525
1476 1481 1472 1490 1506 1501 1484 1471 1458 1463 1468 1473 1480 1488 1493 1498 1504 1509 1513 1516 1520 1524 1526 1529 1531 1533 1533 1534 1535 1537 1539 1539 1540 1539 1539 1538 1538 1538 1536 1533 1532 1532 1529 1528 1526 1525 1524 1523 1521
1478 1475 1488 1486 1510 1513 1489 1479 1470 1470 1470 1474 1476 1483 1490 1498 1503 1508 1512 1515 1518 1522 1525 1527 1529 1529 1529 1530 1532 1534 1535 1535 1536 1536 1535 1534 1535 1533 1531 1530 1529 1528 1527 1525 1524 1523 1522 1520 1518
1478 1482 1481 1482 1488 1505 1508 1488 1470 1472 1471 1472 1476 1481 1488 1495 1500 1504 1508 1512 1515 1518 1521 1523 1526 1525 1526 1526 1528 1529 1530 1531 1532 1532 1531 1531 1531 1530 1528 1527 1526 1525 1524 1524 1522 1521 1519 1518 1515
1470 1473 1476 1498 1501 1494 1504 1494 1470 1472 1473 1474 1476 1478 1482 1488 1494 1499 1504 1508 1511 1513 1517 1519 1523 1523 1522 1524 1525 1527 1527 1529 1531 1529 1528 1529 1527 1526 1525 1525 1523 1522 1522 1519 1518 1517 1516 1516 1513